User: anonymous   Login
Location: Unspecified
(0.0000°N, 0.0000°E)
Time: 02:59:31
(UTC+00:00)
Language:

NAVSTAR 83 (USA 440) - Orbit

View from above orbital plane
View from above orbital plane
View from above satellite
View from above satellite

Ground track
Ground track

The orbit is defined by the following mean orbital elements,

1 62339U          26143.66691068 +.00000000 +00000-0 +00000-0 0 00004
2 62339  54.8596 335.1744 0017374   3.8345 179.6490  2.00571082    05
Epoch (UTC): 23 May 2026 16:00:21
Eccentricity: 0.0017374
inclination: 54.8596°
perigee height: 20135 km
apogee height: 20228 km
right ascension of ascending node: 335.1744°
argument of perigee: 3.8345°
revolutions per day: 2.00571082
mean anomaly at epoch: 179.6490°

The dashed part of the orbit path shows where the satellite is in the earth's shadow,  

DLR